Weather History for Monroe, LA

Change the Weather History Date:

Friday, November 8, 2013

  Actual Average Record
Temperature  
Mean Temperature 51 °F 59 °F  
Max Temperature 64 °F 71 °F 88 °F (1989)
Min Temperature 37 °F 46 °F 25 °F (1951)
Degree Days  
Heating Degree Days 14 7  
Month to date heating degree days 60 51  
Since 1 July heating degree days 126 141  
Cooling Degree Days 0 1  
Month to date cooling degree days 3 10  
Year to date cooling degree days 2423 2494  
Moisture  
Dew Point 40 °F    
Average Humidity 73    
Maximum Humidity 100    
Minimum Humidity 46    
Precipitation  
Precipitation 0.00 in 0.15 in 2.31 in (2000)
Month to date precipitation 0.41 1.18  
Year to date precipitation 42.56 45.07  
Snow  
Snow 0.00 in - - ()
Month to date snowfall 0.0  
Since 1 July snowfall 0.0  
Since 1 September snowfall 0.0  
Snow Depth 0.00 in    
Sea Level Pressure  
Sea Level Pressure 30.35 in    
Wind  
Wind Speed 1 mph (East)    
Max Wind Speed 8 mph    
Max Gust Speed 12 mph    
Visibility 6 miles    
Events Fog    
T = Trace of Precipitation, MM = Missing Value Source: NWS Daily Summary

Daily Weather History Graph

Daily Weather History Graph

Search for Another Location

Airport:

Trip Planner

Search our weather history database for the weather conditions in past years. The results will help you decide how hot, cold, wet, or windy it might be!

Date:

Astronomy

Nov. 08, 2013 Rise Set
Actual Time 6:31 AM CST 5:11 PM CST
Civil Twilight 6:06 AM CST 5:37 PM CST
Nautical Twilight 5:36 AM CST 6:06 PM CST
Astronomical Twilight 5:07 AM CST 6:35 PM CST
Moon 11:27 AM CST (11/8) 10:31 PM CST (11/8)
Length of Visible Light 11h 31m
Length of Day
10h 39m
Waxing Crescent, 33% of the Moon is Illuminated
Nov 8
Waxing Crescent
Nov 9
First Quarter
Nov 17
Full
Nov 25
Last Quarter
Dec 2
New

Hourly Weather History & Observations

Time (CST) Temp. Dew Point Humidity Pressure Visibility Wind Dir Wind Speed Gust Speed Precip Events Conditions
12:53 AM 42.1 °F 39.0 °F 89% 30.37 in 10.0 mi Calm Calm - N/A   Clear
1:53 AM 39.9 °F 37.9 °F 93% 30.38 in 10.0 mi Calm Calm - N/A   Clear
2:44 AM 39.2 °F 39.2 °F 100% 30.38 in 1.8 mi Calm Calm - N/A   Clear
2:53 AM 39.0 °F 37.9 °F 96% 30.38 in 0.8 mi Calm Calm - N/A   Clear
3:02 AM 39.2 °F 37.4 °F 93% 30.38 in 2.0 mi Calm Calm - N/A   Clear
3:09 AM 39.2 °F 39.2 °F 100% 30.37 in 7.0 mi Calm Calm - N/A   Clear
3:53 AM 39.0 °F 37.9 °F 96% 30.37 in 9.0 mi Calm Calm - N/A   Clear
4:08 AM 39.2 °F 37.4 °F 93% 30.37 in 1.0 mi Calm Calm - N/A   Mist
4:15 AM 39.2 °F 37.4 °F 93% 30.37 in 0.8 mi Calm Calm - N/A   Mist
4:19 AM 39.2 °F 37.4 °F 93% 30.37 in 2.0 mi Calm Calm - N/A   Clear
4:25 AM 39.2 °F 37.4 °F 93% 30.37 in 0.8 mi Calm Calm - N/A   Clear
4:39 AM 39.2 °F 37.4 °F 93% 30.37 in 2.0 mi Calm Calm - N/A   Clear
4:48 AM 39.2 °F 37.4 °F 93% 30.37 in 10.0 mi Calm Calm - N/A   Clear
4:53 AM 37.9 °F 37.0 °F 97% 30.37 in 0.8 mi Calm Calm - N/A   Mist
4:59 AM 37.4 °F 37.4 °F 100% 30.36 in 0.2 mi Calm Calm - N/A Fog Fog
5:20 AM 37.4 °F 37.4 °F 100% 30.38 in 0.8 mi Calm Calm - N/A   Mist
5:25 AM 37.4 °F 37.4 °F 100% 30.38 in 1.2 mi Calm Calm - N/A   Partly Cloudy
5:29 AM 37.4 °F 37.4 °F 100% 30.37 in 3.0 mi Calm Calm - N/A   Partly Cloudy
5:46 AM 37.4 °F 37.4 °F 100% 30.38 in 1.8 mi Calm Calm - N/A   Clear
5:53 AM 39.0 °F 37.9 °F 96% 30.38 in 1.0 mi Calm Calm - N/A   Clear
6:06 AM 37.4 °F 37.4 °F 100% 30.38 in 0.5 mi Calm Calm - N/A Fog Fog
6:16 AM 37.4 °F 37.4 °F 100% 30.38 in 2.0 mi Calm Calm - N/A   Clear
6:26 AM 37.4 °F 37.4 °F 100% 30.38 in 4.0 mi Calm Calm - N/A   Clear
6:37 AM 39.2 °F 37.4 °F 93% 30.38 in 1.8 mi Calm Calm - N/A   Clear
6:46 AM 37.4 °F 37.4 °F 100% 30.38 in 0.5 mi Calm Calm - N/A Fog Fog
6:53 AM 37.9 °F 37.0 °F 97% 30.38 in 0.2 mi Calm Calm - N/A Fog Fog
7:03 AM 39.2 °F 37.4 °F 93% 30.38 in 1.0 mi Calm Calm - N/A   Clear
7:18 AM 39.2 °F 39.2 °F 100% 30.38 in 0.8 mi Calm Calm - N/A   Clear
7:24 AM 41.0 °F 39.2 °F 93% 30.39 in 2.5 mi Calm Calm - N/A   Clear
7:31 AM 42.8 °F 41.0 °F 93% 30.39 in 8.0 mi Calm Calm - N/A   Clear
7:53 AM 45.0 °F 43.0 °F 93% 30.40 in 10.0 mi Calm Calm - N/A   Clear
8:53 AM 52.0 °F 44.1 °F 74% 30.41 in 10.0 mi Calm Calm - N/A   Clear
9:53 AM 57.9 °F 39.9 °F 51% 30.40 in 10.0 mi Calm Calm - N/A   Clear
10:53 AM 61.0 °F 41.0 °F 48% 30.38 in 10.0 mi East 5.8 mph - N/A   Clear
11:53 AM 61.0 °F 41.0 °F 48% 30.35 in 10.0 mi Variable 3.5 mph - N/A   Clear
12:53 PM 62.1 °F 41.0 °F 46% 30.31 in 10.0 mi Variable 4.6 mph - N/A   Clear
1:53 PM 61.0 °F 39.0 °F 44% 30.30 in 10.0 mi Calm Calm - N/A   Clear
2:53 PM 61.0 °F 39.0 °F 44% 30.29 in 10.0 mi Calm Calm - N/A   Clear
3:53 PM 60.1 °F 39.9 °F 47% 30.27 in 10.0 mi Calm Calm - N/A   Clear
4:53 PM 55.9 °F 46.9 °F 72% 30.27 in 10.0 mi Calm Calm - N/A   Clear
5:53 PM 53.1 °F 46.9 °F 80% 30.26 in 10.0 mi Calm Calm - N/A   Clear
6:53 PM 51.1 °F 46.9 °F 86% 30.26 in 10.0 mi Calm Calm - N/A   Clear
7:53 PM 51.1 °F 46.0 °F 83% 30.25 in 10.0 mi Calm Calm - N/A   Clear
8:53 PM 51.1 °F 46.9 °F 86% 30.25 in 10.0 mi Calm Calm - N/A   Clear
9:53 PM 48.0 °F 46.0 °F 93% 30.24 in 10.0 mi Calm Calm - N/A   Clear
10:53 PM 48.0 °F 45.0 °F 89% 30.23 in 10.0 mi Calm Calm - N/A   Clear
11:53 PM 46.0 °F 45.0 °F 96% 30.21 in 10.0 mi Calm Calm - N/A   Clear